Location: Newark
(44.3681°N, 100.3364°W)
Time: 01:27:28
(UTC+00:00)

Vanguard 1 - Pass Details

Date: 01 March 2020
Orbit: 649 x 3833 km, 34.2° (Epoch: 08 April)

Event Time Altitude Azimuth Distance (km) Brightness Sun altitude
Rises 10:26:14 0° 203° (SSW) 7,022 - -31.0°
Exits shadow 10:28:51 - 198° (SSW) 6,672 14.0 -30.5°
Reaches altitude 10° 10:31:27 10° 194° (SSW) 6,355 13.9 -30.1°
Maximum altitude 10:49:07 32° 140° (SE) 5,261 13.8 -27.1°
Drops below altitude 10° 11:06:58 10° 87° (E) 6,502 15.3 -24.0°
Sets 11:12:15 0° 79° (E) 7,208 16.0 -23.1°
